Regional Weather Roundup
Issued by NWS

Home | Current Version | Previous Version | Text Only | Print | Product List | Glossary On
Versions: 1 2 3 4 5 6 7 8 9 10 11 12 13 14 15 16 17 18 19 20 21 22 23 24 25 26 27 28 29 30 31 32 33 34 35 36 37 38 39 40 41 42 43 44 45 46 47 48 49 50
000
ASUS43 KMPX 260901
RWRMN
WEATHER ROUNDUP FOR MINNESOTA
NATIONAL WEATHER SERVICE TWIN CITIES/CHANHASSEN MN
400 AM CDT SUN MAR 26 2017


NOTE: "FAIR" INDICATES FEW OR NO CLOUDS BELOW 12,000 FEET WITH NO
SIGNIFICANT WEATHER AND/OR OBSTRUCTIONS TO VISIBILITY. N/A MEANS
CURRENT SKY AND/OR WEATHER CONDITIONS ARE NOT AVAILABLE.

MNZ060>063-068>070-261000-
   Twin Cities Metro

CITY           SKY/WX    TMP DP  RH WIND       PRES   REMARKS
TWIN CITIES    DRIZZLE   37  34  89 E9        29.95F
ST PAUL        CLOUDY    37  35  92 E8        29.97F
CRYSTAL        LGT RAIN  36  33  89 E6        29.95F
BLAINE         DRIZZLE   37  37 100 E6        29.96F
LAKEVILLE      CLOUDY    34  34 100 E7        29.94F WCI  28
EDEN PRAIRIE   CLOUDY    38  35  89 E6        29.93F FOG
SOUTH ST PAUL  CLOUDY    37  35  96 CALM      29.95F
LAKE ELMO      MIX PCPN  36  36 100 NE6       29.97F
$$
MNZ001>005-007-008-013>017-022>024-027-028-261000-
   Northwest Minnesota

CITY           SKY/WX    TMP DP  RH WIND       PRES   REMARKS
BEMIDJI        CLOUDY    31  29  93 S3        30.00F
HALLOCK        CLOUDY    34  34 100 S12       29.97F WCI  25
ROSEAU         PTCLDY    34  28  80 S3        30.00S
WARROAD        PTCLDY    32  28  86 S6        30.00F WCI  26
THIEF RVR FALL   N/A     32  32 100 MISG        N/A
CROOKSTON      CLOUDY    34  34 100 S7        30.00F FOG     WCI  28
FOSSTON        CLOUDY    30  27  86 CALM      30.01S
DETROIT LAKES  CLOUDY    34  32  93 SE5       30.00S WCI  30
MOORHEAD       CLOUDY    34  30  86 CALM      30.01S
PARK RAPIDS    CLOUDY    34  28  79 E3        29.99S
MAHNOMEN       CLOUDY    32  30  90 CALM      30.00R
$$
MNZ006-009>011-018-025>026-261000-
   North Central Minnesota

CITY           SKY/WX    TMP DP  RH WIND       PRES   REMARKS
BAUDETTE       MOCLDY    30  26  85 SE7       30.00F WCI  23
FLAG ISLAND    PTCLDY    30  28  93 S14       30.00S WCI  20
INTL FALLS     CLOUDY    31  27  85 SE5       30.03F WCI  26
WASKISH        MOCLDY    32  28  86 CALM      30.01F
BIG FORK       CLOUDY    32  30  93 CALM      30.02S
LONGVILLE      CLOUDY    30  30 100 CALM      30.00F FOG
GRAND RAPIDS   CLOUDY    31  30  96 E3        30.03S FOG
CRANE LAKE     CLOUDY    30  28  93 CALM      30.06F
ORR            CLOUDY    30  27  86 CALM      30.01F
COOK           CLOUDY    30  28  93 CALM      30.02F
WALKER         CLOUDY    31  30  96 CALM      30.00F FOG
$$
MNZ012-019>021-037-261000-
   Northeast Minnesota

CITY           SKY/WX    TMP DP  RH WIND       PRES   REMARKS
DULUTH         CLOUDY    31  31 100 E10       30.00F FOG     WCI  22
ELY            CLOUDY    30  28  93 CALM      30.03F
HIBBING        CLOUDY    30  29  96 E5        30.01F FOG     WCI  25
EVELETH        CLOUDY    32  31  96 NE3       30.03F FOG
DULUTH HARBOR  CLOUDY    34  32  93 NE14      30.04F WCI  24
TWO HARBORS    CLOUDY    34  28  80 NE8       30.01F WCI  27
SILVER BAY     CLOUDY    32  30  93 NE6       30.02F WCI  26
GRAND MARAIS     N/A     35  28  75 NE8       30.07F WCI  29
G MARAIS ARPRT CLOUDY    28  23  80 NE6       30.03F WCI  22
$$
MNZ029>031-032-039>041-046>048-054>057-064-261000-
   West Central Minnesota

CITY           SKY/WX    TMP DP  RH WIND       PRES   REMARKS
FERGUS FALLS   CLOUDY    36  30  80 CALM      30.02F
WHEATON        CLOUDY    36  34  93 CALM      29.99F
MORRIS         CLOUDY    36  34  93 CALM      29.96F
ALEXANDRIA     CLOUDY    36  31  82 NE6       29.97F
ELBOW LAKE     CLOUDY    35  35  98 CALM      29.98F
WADENA         CLOUDY    34  28  80 E5        29.98F WCI  30
GLENWOOD       CLOUDY    36  34  93 NE6       29.97S
APPLETON       CLOUDY    37  36  93 CALM      29.96F
BENSON         CLOUDY    39  34  81 CALM      29.98F
ORTONVILLE     CLOUDY    36  34  93 CALM      29.96F FOG
MADISON        CLOUDY    37  37 100 NE3       29.95F FOG
WILLMAR        CLOUDY    37  36  93 NE3       29.97F
$$
MNZ033>034-036-042>043-049>051-058-059-261000-
   Central Minnesota

CITY           SKY/WX    TMP DP  RH WIND       PRES   REMARKS
ST CLOUD       CLOUDY    35  30  82 NE6       29.97F WCI  30
SAUK CENTRE    CLOUDY    35  31  85 E7        29.97F WCI  29
PAYNESVILLE      N/A     36  32  87 NE6       29.97F
AITKIN         CLOUDY    36  30  80 NE3       29.99F HAZE
PINE RIVER     CLOUDY    32  30  93 E3        30.03F
BRAINERD       CLOUDY    33  29  85 E3        30.00F
STAPLES        CLOUDY    34  28  80 CALM      29.99S
LONG PRAIRIE   CLOUDY    32  30  93 N5        29.98S WCI  27
LITTLE FALLS   CLOUDY    34  28  80 CALM      29.99F
LITCHFIELD     CLOUDY    37  37 100 NE5       29.96S
BUFFALO        DRIZZLE   37  34  90 NE8       29.96F
MAPLE LAKE     LGT RAIN  37  37  97 NE5       29.97S
HUTCHINSON     RAIN      37  37  98 NE5       29.96S
$$
MNZ037-044-045-052-053-261000-
   East Central Minnesota

CITY           SKY/WX    TMP DP  RH WIND       PRES   REMARKS
PRINCETON      DRIZZLE   36  34  93 N5        29.98S
MORA           MIX PCPN  32  32 100 CALM      30.01S
CAMBRIDGE      MIX PCPN  36  32  87 NE5       29.96F
RUSH CITY      DRIZZLE   33  32  96 NE8       29.99F WCI  26
MOOSE LAKE     CLOUDY    32  30  93 NE3       29.99F
CLOQUET        CLOUDY    32  30  93 E7        30.00F FOG     WCI  26
MCGREGOR       CLOUDY    32  32 100 NE3       30.01F
$$
MNZ071>073-080-081-089-090-097-098-261000-
   Southwest Minnesota

CITY           SKY/WX    TMP DP  RH WIND       PRES   REMARKS
MONTEVIDEO     CLOUDY    36  36 100 E3        29.97F
GRANITE FALLS  CLOUDY    38  37  95 N3        29.97F
CANBY          CLOUDY    37  37  99 CALM      29.95F FOG
MARSHALL       CLOUDY    37  35  92 NE3       29.94F
REDWOOD FALLS  CLOUDY    38  35  89 N3        29.94F FOG
OLIVIA         CLOUDY    36  34  93 CALM      29.95S
PIPESTONE      FOG       36  34  93 SE3       29.90F VSB 1/4
WINDOM         LGT RAIN  36  36 100 NE5       29.92S
WORTHINGTON    FOG       35  35 100 NE7       29.91F VSB 1/2 WCI  29
JACKSON        DRIZZLE   36  36 100 NE5       29.91S
TRACY          CLOUDY    37  37  99 NE3       29.94F FOG
SLAYTON        FOG       35  35 100 NE3       29.92F VSB 1/2
$$
MNZ065>067-074>077-082>085-091>093-261000-
   South Central Minnesota

CITY           SKY/WX    TMP DP  RH WIND       PRES   REMARKS
MANKATO        CLOUDY    36  35  96 E7        29.93F
NEW ULM        RAIN      37  36  93 NE5       29.93F
ST JAMES       CLOUDY    36  36 100 CALM      29.93F FOG
FAIRMONT       CLOUDY    36  35  96 NE8       29.91F
GLENCOE        LGT RAIN  38  38 100 E5        29.94F
FARIBAULT      CLOUDY    36  36 100 NE6       29.93F
OWATONNA       CLOUDY    36  34  93 NE7       29.92F FOG
WASECA         CLOUDY    36  36 100 NE8       29.93F
ALBERT LEA     FOG       36  36 100 NE12      29.89F VSB 1/2
$$
MNZ078>079-086>088-094>096-261000-
   Southeast Minnesota

CITY           SKY/WX    TMP DP  RH WIND       PRES   REMARKS
ROCHESTER      FOG       34  34 100 NE9       29.91F VSB 1/2 WCI  27
RED WING       CLOUDY    36  34  93 E7        29.95F
STANTON        CLOUDY    36  34  92 NE8       29.93F
DODGE CENTER   SNOW      34  34 100 NE8       29.91F VSB 1/2 WCI  27
WINONA         CLOUDY    36  36 100 E5        29.95F
AUSTIN         FOG       36  34  93 NE7       29.89F VSB 1
PRESTON        CLOUDY    34  33  97 NE7       29.91F FOG     WCI  28
$$
ABBREVIATIONS USED IN REMARKS
   TC - TEMPERATURES IN CELSIUS
  WCI - WIND CHILL INDEX
   HX - HEAT INDEX
  VSB - VISIBILITY
$$




USA.gov is the U.S. government's official web portal to all federal, state and local government web resources and services.